Regional Weather Roundup
Issued by NWS

Home | Current Version | Previous Version | Graphics & Text | Print | Product List | Glossary Off
Versions: 1 2 3 4 5 6 7 8 9 10 11 12 13 14 15 16 17 18 19 20 21 22 23 24 25 26 27 28 29 30 31 32 33 34 35 36 37 38 39 40 41 42 43 44 45 46 47 48 49 50

000
ASUS44 KMEG 061910
RWRTN
TENNESSEE HOURLY STATE WEATHER ROUNDUP
NATIONAL WEATHER SERVICE MEMPHIS TN
200 PM CDT MON JUL 06 2015

TNZ002-004-019-021-049-052-054-088>092-062000-
WEST TENNESSEE

CITY           SKY/WX    TMP DP  RH WIND       PRES   REMARKS
MEMPHIS INTL   PTSUNNY   85  74  69 W7        30.09F HX  92
NWS MEMPHIS      N/A     84 N/A N/A MISG        N/A
JACKSON        CLOUDY    84  73  69 SW7       30.10F HX  90
DYERSBURG        N/A    N/A N/A N/A MISG        N/A
PARIS          SUNNY     84  72  65 SW9       30.08F
LEXINGTON      MOSUNNY   86  73  66 SW6       30.09F HX  93
$$

TNZ008-025-027-028-033-062-065-066-062000-
NORTH MIDDLE TENNESSEE

CITY           SKY/WX    TMP DP  RH WIND       PRES   REMARKS
NASHVILLE      MOSUNNY   84  71  65 SW3       30.12F
CLARKSVILLE    PTSUNNY   84  72  67 SW9       30.08F
SMYRNA         PTSUNNY   86  71  60 SW8       30.12F HX  91
COOKEVILLE     MOSUNNY   86  73  66 VRB6      30.13F HX  93
CROSSVILLE     PTSUNNY   81  66  60 W9        30.18F
$$

TNZ061-075-076-078-094-096-097-062000-
SOUTH MIDDLE TENNESSEE

CITY           SKY/WX    TMP DP  RH WIND       PRES   REMARKS
FAYETTEVILLE   MOSUNNY   81  68  65 SW9       30.15F
TULLAHOMA      MOSUNNY   81  70  69 SW9       30.16F
WINCHESTER     MOSUNNY   82  70  65 SW8       30.15F
MCMINNVILLE    MOSUNNY   84  72  65 SW6       30.14F
COLUMBIA       MOSUNNY   86  72  62 SW9       30.11F HX  92
SHELBYVILLE    MOSUNNY   84  73  70 SW7       30.14F HX  91
$$

TNZ017-018-042-046-047-062000-
NORTHEAST TENNESSEE

CITY           SKY/WX    TMP DP  RH WIND       PRES   REMARKS
TRI CITIES     PTSUNNY   82  64  54 W13       30.14F
ELIZABETHTON   MOCLDY    81  66  61 W7        30.15S
$$

TNZ012-013-036-069-073-074-062000-
CENTRAL EAST TENNESSEE

CITY           SKY/WX    TMP DP  RH WIND       PRES   REMARKS
KNOXVILLE      PTSUNNY   82  68  62 SW8       30.13F
OAK RIDGE      SUNNY     85  67  54 VRB6      30.13F
GATLINBURG     CLEAR     82  64  54 W7        30.13F
MORRISTOWN     CLEAR     81  68  65 SW7       30.16S
$$

TNZ083-085-099-062000-
SOUTHEAST TENNESSEE

CITY           SKY/WX    TMP DP  RH WIND       PRES   REMARKS
CHATTANOOGA    PTSUNNY   85  67  54 SW3       30.12F
$$

SKY/WX REPORTED AS FAIR MEANS FEW OR NO CLOUDS BELOW
12 THOUSAND FEET.



USA.gov is the U.S. government's official web portal to all federal, state and local government web resources and services.